TimeCST,TemperatureF,Dew PointF,Humidity,Sea Level PressureIn,VisibilityMPH,Wind Direction,Wind SpeedMPH,Gust SpeedMPH,PrecipitationIn,Events,Conditions,WindDirDegrees,DateUTC
12:15 AM,64.4,62.6,94,29.90,0.5,Calm,Calm,-,N/A,Rain,Light Rain,0,2013-02-23 06:15:00
12:35 AM,62.6,62.6,100,29.90,0.5,Calm,Calm,-,N/A,Rain,Heavy Rain,0,2013-02-23 06:35:00
12:55 AM,62.6,62.6,100,29.88,0.5,Calm,Calm,-,N/A,Rain,Rain,0,2013-02-23 06:55:00
1:15 AM,64.4,62.6,94,29.87,0.5,Calm,Calm,-,N/A,Rain,Light Rain,0,2013-02-23 07:15:00
1:35 AM,64.4,62.6,94,29.87,0.5,Calm,Calm,-,N/A,Rain,Light Rain,0,2013-02-23 07:35:00
1:55 AM,64.4,64.4,100,29.86,0.2,Calm,Calm,-,N/A,Rain,Rain,0,2013-02-23 07:55:00
2:35 AM,62.6,60.8,94,29.85,0.5,NW,4.6,-,N/A,Rain,Light Rain,310,2013-02-23 08:35:00
2:55 AM,60.8,60.8,100,29.85,0.5,NW,3.5,-,N/A,Rain,Rain,320,2013-02-23 08:55:00
3:15 AM,60.8,60.8,100,29.85,0.5,NW,3.5,-,N/A,Rain,Light Rain,320,2013-02-23 09:15:00
3:35 AM,60.8,60.8,100,29.87,0.8,NW,5.8,-,N/A,Rain,Light Rain,310,2013-02-23 09:35:00
3:55 AM,59.0,59.0,100,29.88,2.5,NNW,8.1,-,N/A,Rain,Light Rain,330,2013-02-23 09:55:00
4:15 AM,59.0,59.0,100,29.88,2.5,NNW,5.8,-,N/A,Rain,Rain,340,2013-02-23 10:15:00
4:35 AM,60.8,59.0,94,29.88,5.0,North,8.1,-,0.02,Rain,Light Rain,10,2013-02-23 10:35:00
4:55 AM,60.8,59.0,94,29.87,10.0,NNE,6.9,-,0.02,Rain,Light Rain,30,2013-02-23 10:55:00
5:15 AM,60.8,59.0,94,29.88,10.0,NNE,4.6,-,N/A,,Overcast,30,2013-02-23 11:15:00
5:35 AM,60.8,59.0,94,29.88,7.0,North,3.5,-,N/A,,Overcast,10,2013-02-23 11:35:00
5:55 AM,60.8,60.8,100,29.89,7.0,NNW,5.8,-,N/A,,Overcast,340,2013-02-23 11:55:00
6:15 AM,59.0,59.0,100,29.93,5.0,WNW,11.5,16.1,0.10,Rain,Heavy Rain,290,2013-02-23 12:15:00
6:35 AM,57.2,57.2,100,29.91,7.0,NW,6.9,-,0.45,Rain,Rain,320,2013-02-23 12:35:00
6:55 AM,59.0,57.2,94,29.89,4.0,NNE,11.5,-,0.59,Rain,Heavy Rain,20,2013-02-23 12:55:00
7:15 AM,59.0,59.0,100,29.90,5.0,NE,6.9,-,0.04,Rain,Rain,50,2013-02-23 13:15:00
7:35 AM,59.0,57.2,94,29.93,3.0,NNW,3.5,-,0.12,Rain,Heavy Rain,340,2013-02-23 13:35:00
7:55 AM,59.0,57.2,94,29.92,2.5,North,6.9,-,0.19,Rain,Rain,360,2013-02-23 13:55:00
8:15 AM,59.0,57.2,94,29.92,7.0,NNE,5.8,-,0.03,Rain,Rain,20,2013-02-23 14:15:00
8:35 AM,59.0,57.2,94,29.92,7.0,NE,4.6,-,0.03,,Mostly Cloudy,40,2013-02-23 14:35:00
8:55 AM,59.0,57.2,94,29.92,10.0,North,5.8,-,0.03,Rain,Light Rain,10,2013-02-23 14:55:00
9:15 AM,59.0,57.2,94,29.92,7.0,North,4.6,-,N/A,,Overcast,360,2013-02-23 15:15:00
9:35 AM,59.0,57.2,94,29.92,7.0,NNW,6.9,-,N/A,,Overcast,340,2013-02-23 15:35:00
9:55 AM,59.0,57.2,94,29.91,7.0,North,8.1,-,N/A,,Overcast,360,2013-02-23 15:55:00
10:15 AM,59.0,57.2,94,29.90,7.0,North,6.9,-,N/A,,Mostly Cloudy,360,2013-02-23 16:15:00
10:35 AM,59.0,59.0,100,29.90,7.0,North,6.9,-,N/A,,Mostly Cloudy,360,2013-02-23 16:35:00
10:55 AM,59.0,59.0,100,29.90,7.0,North,5.8,-,N/A,,Overcast,10,2013-02-23 16:55:00
11:15 AM,60.8,59.0,94,29.90,7.0,NNE,6.9,-,N/A,,Overcast,20,2013-02-23 17:15:00
11:35 AM,60.8,59.0,94,29.91,7.0,North,4.6,-,N/A,,Overcast,350,2013-02-23 17:35:00
12:15 PM,59.0,57.2,94,29.90,7.0,NNW,9.2,-,N/A,,Overcast,330,2013-02-23 18:15:00
12:35 PM,59.0,57.2,94,29.90,10.0,North,5.8,-,N/A,,Overcast,350,2013-02-23 18:35:00
1:15 PM,60.8,59.0,94,29.90,10.0,NW,9.2,-,N/A,Rain,Light Rain,320,2013-02-23 19:15:00
1:35 PM,59.0,59.0,100,29.91,10.0,NW,5.8,-,0.02,Rain,Rain,310,2013-02-23 19:35:00
1:55 PM,59.0,57.2,94,29.92,5.0,WNW,8.1,-,0.05,Rain,Rain,290,2013-02-23 19:55:00
2:15 PM,59.0,57.2,94,29.91,7.0,NW,10.4,17.3,0.01,Rain,Rain,320,2013-02-23 20:15:00
2:35 PM,59.0,57.2,94,29.91,10.0,NNW,6.9,-,0.02,Rain,Light Rain,330,2013-02-23 20:35:00
3:15 PM,59.0,57.2,94,29.87,10.0,NNE,6.9,-,0.01,Rain,Light Rain,30,2013-02-23 21:15:00
3:35 PM,59.0,59.0,100,29.85,10.0,East,5.8,-,0.01,Rain,Rain,80,2013-02-23 21:35:00
4:15 PM,59.0,59.0,100,29.79,5.0,East,9.2,-,N/A,,Scattered Clouds,100,2013-02-23 22:15:00
4:35 PM,60.8,59.0,94,29.81,5.0,NE,4.6,-,N/A,,Mostly Cloudy,40,2013-02-23 22:35:00
4:55 PM,60.8,59.0,94,29.84,7.0,Calm,Calm,-,N/A,,Scattered Clouds,0,2013-02-23 22:55:00
5:15 PM,60.8,59.0,94,29.85,7.0,NW,4.6,-,N/A,,Mostly Cloudy,320,2013-02-23 23:15:00
5:35 PM,59.0,59.0,100,29.86,7.0,NW,8.1,-,N/A,,Overcast,320,2013-02-23 23:35:00
5:55 PM,59.0,59.0,100,29.87,5.0,NW,8.1,-,N/A,,Overcast,310,2013-02-23 23:55:00
6:15 PM,59.0,57.2,94,29.88,7.0,NW,6.9,-,N/A,,Overcast,310,2013-02-24 00:15:00
6:35 PM,59.0,57.2,94,29.89,7.0,NW,3.5,-,N/A,,Overcast,320,2013-02-24 00:35:00
6:55 PM,59.0,57.2,94,29.91,5.0,WNW,3.5,-,N/A,,Overcast,300,2013-02-24 00:55:00
7:15 PM,59.0,57.2,94,29.90,7.0,NNW,5.8,-,N/A,,Overcast,330,2013-02-24 01:15:00
7:35 PM,59.0,57.2,94,29.91,7.0,NNW,5.8,-,N/A,,Overcast,340,2013-02-24 01:35:00
7:55 PM,59.0,57.2,94,29.91,7.0,NNW,4.6,-,N/A,,Overcast,340,2013-02-24 01:55:00
8:15 PM,59.0,57.2,94,29.92,10.0,North,3.5,-,N/A,,Overcast,360,2013-02-24 02:15:00
8:35 PM,59.0,57.2,94,29.92,7.0,North,3.5,-,N/A,,Overcast,350,2013-02-24 02:35:00
8:55 PM,59.0,57.2,94,29.93,10.0,North,3.5,-,N/A,,Overcast,10,2013-02-24 02:55:00
9:35 PM,59.0,57.2,94,29.95,7.0,North,3.5,-,N/A,,Overcast,360,2013-02-24 03:35:00
9:55 PM,59.0,57.2,94,29.95,7.0,North,3.5,-,N/A,,Overcast,350,2013-02-24 03:55:00
10:15 PM,59.0,55.4,88,29.95,7.0,NNW,3.5,-,N/A,,Overcast,340,2013-02-24 04:15:00
10:35 PM,59.0,55.4,88,29.96,7.0,NNW,3.5,-,N/A,,Overcast,330,2013-02-24 04:35:00
11:15 PM,57.2,55.4,94,29.95,4.0,North,4.6,-,N/A,,Overcast,350,2013-02-24 05:15:00
11:35 PM,57.2,55.4,94,29.96,4.0,North,4.6,-,N/A,,Overcast,360,2013-02-24 05:35:00
11:55 PM,57.2,55.4,94,29.96,7.0,North,6.9,-,N/A,,Overcast,10,2013-02-24 05:55:00